This is the latest recevied weather packets stored in our database for station/object NK7E-2. If no packets are shown the sender has not sent any weather packets the latest 10 day(s).
| Time | Temp. | Humidity | Pressure | Rain* | Wind** | Luminosity | Snow |
|---|---|---|---|---|---|---|---|
| 1788523817 | 23.33° C | 74% | 1025.6 hPa | 0 mm | - | - | - |
| 1788522017 | 23.33° C | 75% | 1026 hPa | 0 mm | - | - | - |
| 1788521417 | 23.33° C | 75% | 1026 hPa | 0 mm | - | - | - |
| 1788520817 | 23.33° C | 75% | 1026.2 hPa | 0 mm | - | - | - |
| 1788518417 | 23.33° C | 73% | 1026.4 hPa | 0 mm | - | - | - |
| 1788517817 | 23.89° C | 73% | 1026.5 hPa | 0 mm | - | - | - |
| 1788517217 | 23.33° C | 74% | 1026.3 hPa | 0 mm | - | - | - |
| 1788516617 | 23.33° C | 73% | 1026.5 hPa | 0 mm | - | - | - |
| 1788515417 | 23.33° C | 75% | 1026.5 hPa | 0 mm | - | - | - |
| 1788514817 | 23.33° C | 74% | 1026.2 hPa | 0 mm | - | - | - |
| 1788514217 | 23.33° C | 74% | 1026.2 hPa | 0 mm | - | - | - |
| 1788513617 | 23.33° C | 73% | 1026.1 hPa | 0 mm | - | - | - |
| 1788512417 | 23.33° C | 72% | 1026.1 hPa | 0 mm | - | - | - |
| 1788511217 | 23.89° C | 70% | 1026.4 hPa | 0 mm | - | - | - |
| 1788510617 | 23.89° C | 70% | 1026.3 hPa | 0 mm | - | - | - |
| 1788510017 | 23.89° C | 71% | 1026.2 hPa | 0 mm | - | - | - |
| 1788509417 | 23.89° C | 71% | 1026.2 hPa | 0 mm | - | - | - |
| 1788508817 | 23.33° C | 73% | 1026.3 hPa | 0 mm | - | - | - |
| 1788508217 | 23.33° C | 72% | 1026.3 hPa | 0 mm | - | - | - |
| 1788507617 | 23.89° C | 72% | 1026.3 hPa | 0 mm | - | - | - |
| 1788507017 | 23.89° C | 70% | 1026.4 hPa | 0 mm | - | - | - |
| 1788506417 | 23.33° C | 72% | 1026 hPa | 0 mm | - | - | - |
| 1788505817 | 23.33° C | 73% | 1025.9 hPa | 0 mm | - | - | - |
| 1788505217 | 23.33° C | 73% | 1026.1 hPa | 0 mm | - | - | - |
| 1788504017 | 23.33° C | 69% | 1026.2 hPa | 0 mm | - | - | - |
* Rain latest hour (hover to see other rain measurements)
** Current wind speed in m/s (hover to see current wind gust speed)